NOAA 17 DEB, 48615

Orbit data source: Space-Track

NOAA 17 DEB, 48615 is space debris in SSO originally from a launch on Mon, 24 Jun 2002 UTC launched from the Air Force Western Test Range (AFWTR). Debris objects in space refer to the collection of defunct objects orbiting the Earth. Examples of debris include non-operational satellites, rocket bodies, and fragments generated from explosions, collisions, or faulty payload assembly.

Loading next visibility...
Identifier
48615, 2002-032AG
Orbit
SSO
Country
Flag of USUS
Related business
Manufacturer
Unknown
Mission
Spacecraft
Bus & Motor
Unknown
Mass
Unknown
Launch date (UTC)
2002-06-24 (23 years ago)
Launch vehicle
Unknown
Launch site
Air Force Western Test Range (AFWTR)
Object type
Payload
Rocket body
Debris
Shape & HBR
Unknown shape, 0.1 m
Radar Cross Section
Small (<0.1 m²)

Expand to show TLE details & history
Last TLE update: 22 hours ago

TLE from 22 hours ago
0 NOAA 17 DEB
1 48615U 02032AG  25349.48100625  .00127374  00000-0  56955-2 0  9996
2 48615  98.9374  74.4246 0010755 245.0804 114.9310 15.20691928252230
Epoch: 2025-12-15T11:32Z
TLE epoch observation values (Epoch: 2025-12-15T11:32:38.939Z)
Latitude
-0°
Longitude
176.8834°
Altitude
509.922 km
Speed
7.607 km/s
True Right ascension
04h 57m 41s
True Declination
0° 00' 00"
Sunlit
Object was in full shadow at epoch
Visualization orbit readout
Latitude
Unknown
Longitude
Unknown
Altitude
Unknown
Speed
Unknown
Apparent Right ascension
Unknown
Apparent Declination
Unknown
Sunlit
N/A
Visualization observer readout
Local Sidereal Time
08:23:17
Azimuth
Unknown
Elevation
Unknown
Doppler factor
Unknown
Orbital elements
Apogee altitude
508.188 km
Perigee altitude
493.391 km
Semi-major axis
6,878.926 km
Eccentricity
0.00108
Inclination
98.9374°
RAAN
74.4246°
Arg. of periapsis
245.0804°
True anomaly
115.0427°
Mean anomaly
114.931°
Eccentric anomaly
114.98685°
Mean motion
3.80419 °/min
Orbital period
94.63 mins
BSTAR
0.0056955
Loading maneuver chart data...
Computing Atmospheric mass density...
Loading historical data...
Loading historical data...
Loading historical data...
Loading historical data...
Loading historical data...
Loading historical data...
Loading historical data...

Documentation

Showing up to 5 results
|